Regional Weather Roundup
Issued by NWS Raleigh/Durham, NC

Home | Current Version | Previous Version | Text Only | Print | Product List | Glossary On
Versions: 1 2 3 4 5 6 7 8 9 10 11 12 13 14 15 16 17 18 19 20 21 22 23 24 25 26 27 28 29 30 31 32 33 34 35 36 37 38 39 40 41 42 43 44 45 46 47 48 49 50
000
ASUS42 KRAH 250310
RWRRAH
NORTH CAROLINA WEATHER ROUNDUP
NATIONAL WEATHER SERVICE RALEIGH NC
1100 PM EDT SAT JUN 24 2017

NOTE: "FAIR" INDICATES FEW OR NO CLOUDS BELOW 12,000 FEET WITH NO
SIGNIFICANT WEATHER AND/OR OBSTRUCTIONS TO VISIBILITY.

NCZ001-053-055-056-065-067-250400-
WESTERN NORTH CAROLINA

CITY           SKY/WX    TMP DP  RH WIND       PRES   REMARKS
ASHEVILLE      CLEAR     72  59  63 N12       30.13R
JEFFERSON      CLEAR     66  56  70 NW6       30.16R
HICKORY        CLOUDY    73  72  96 CALM      30.05R FOG
RUTHERFORDTON  NOT AVBL
MOUNT AIRY     CLOUDY    74  65  74 CALM      30.07R
BOONE          NOT AVBL
$$

NCZ021-022-025-041-071-084-088-250400-
CENTRAL NORTH CAROLINA

CITY           SKY/WX    TMP DP  RH WIND       PRES   REMARKS
CHARLOTTE      CLOUDY    72  69  90 W5        30.05R
GREENSBORO     LGT RAIN  72  71  97 NW5       30.03R
WINSTON-SALEM  CLOUDY    72  69  90 MISG      30.04R
RALEIGH-DURHAM CLOUDY    72  71  97 W3        30.02S
FORT BRAGG     MOCLDY    72  71  99 S3        30.01S
FAYETTEVILLE   CLOUDY    74  72  93 S5        30.02R
BURLINGTON     MOCLDY    72  71  97 S5        30.01S
LAURINBURG     CLOUDY    76  76 100 S3        30.02R
$$

NCZ011-015-027-028-043-044-047-080-103-250400-
NORTHEASTERN NORTH CAROLINA

CITY           SKY/WX    TMP DP  RH WIND       PRES   REMARKS
ROCKY MT-WILSO PTCLDY    71  71 100 SW3       30.00R
GREENVILLE     LGT RAIN  73  73 100 CALM      30.00F
WASHINGTON     LGT RAIN N/A N/A N/A CALM      30.00S
ELIZABETH CITY RAIN      73  73 100 E9        30.00F FOG
MANTEO         LGT RAIN  77  75  95 W6        29.99S
CAPE HATTERAS  CLOUDY    79  75  87 SW17G26   29.99F
$$

NCZ078-087-090-091-093-098-101-250400-
SOUTHEASTERN NORTH CAROLINA

CITY           SKY/WX    TMP DP  RH WIND       PRES   REMARKS
LUMBERTON      CLOUDY    76  75  97 S3        30.01R
GOLDSBORO      PTCLDY    73  73 100 S7        29.98S
KINSTON        LGT RAIN  74  73  97 CALM      30.00
KENANSVILLE    CLOUDY    73  72  94 S3        30.01F
NEW BERN       CLOUDY    74  74 100 S8        30.01S
CHERRY POINT   RAIN      74  72  93 S7        30.02S
BEAUFORT       LGT RAIN  78  74  87 W13       30.02R
JACKSONVILLE   TSTM      74  74 100 SW7       30.02R FOG
WILMINGTON     RAIN      76  75  97 NW6       30.03S
$$




USA.gov is the U.S. government's official web portal to all federal, state and local government web resources and services.